Weather History for Easton, MD

Change the Weather History Date:

Saturday, May 17, 2014

  Actual Average Record
Temperature  
Mean Temperature 60 °F -  
Max Temperature 68 °F 78 °F 90 °F (1974)
Min Temperature 51 °F 55 °F 35 °F (1956)
Degree Days  
Heating Degree Days 6    
Growing Degree Days 10 (Base 50)    
Moisture  
Dew Point 49 °F    
Average Humidity 71    
Maximum Humidity 100    
Minimum Humidity 43    
Precipitation  
Precipitation 0.00 in - - ()
Sea Level Pressure  
Sea Level Pressure 30.06 in    
Wind  
Wind Speed 4 mph (NNW)    
Max Wind Speed 10 mph    
Max Gust Speed 30 mph    
Visibility 10 miles    
Events      
Averages and records for this station are not official NWS values.
T = Trace of Precipitation, MM = Missing Value Source: NWS Daily Summary

Daily Weather History Graph

Daily Weather History Graph

Search for Another Location

Airport:

Trip Planner

Search our weather history database for the weather conditions in past years. The results will help you decide how hot, cold, wet, or windy it might be!

Date:

Astronomy

May. 17, 2014 Rise Set
Actual Time 5:50 AM EDT 8:11 PM EDT
Civil Twilight 5:20 AM EDT 8:41 PM EDT
Nautical Twilight 4:43 AM EDT 9:19 PM EDT
Astronomical Twilight 4:02 AM EDT 10:00 PM EDT
Moon 11:10 PM EDT (5/17) 8:30 AM EDT (5/17)
Length of Visible Light 15h 21m
Length of Day
14h 21m
Waning Gibbous, 89% of the Moon is Illuminated
May 17
Waning Gibbous
May 21
Last Quarter
May 28
New
Jun 5
First Quarter
Jun 13
Full

Hourly Weather History & Observations

Time (EDT) Temp. Dew Point Humidity Pressure Visibility Wind Dir Wind Speed Gust Speed Precip Events Conditions
12:09 AM 60.8 °F 60.8 °F 100% 29.96 in 10.0 mi North 3.5 mph - N/A   Mostly Cloudy
12:29 AM 62.4 °F 61.9 °F 98% 29.96 in 10.0 mi North 8.1 mph - N/A   Mostly Cloudy
12:49 AM 61.9 °F 60.8 °F 96% 29.97 in 10.0 mi North 4.6 mph - N/A   Mostly Cloudy
1:09 AM 61.9 °F 55.4 °F 79% 29.97 in 10.0 mi North 6.9 mph - N/A   Overcast
1:29 AM 61.2 °F 51.8 °F 71% 29.97 in 10.0 mi North 8.1 mph - N/A   Mostly Cloudy
1:49 AM 60.8 °F 49.5 °F 66% 29.97 in 10.0 mi North 10.4 mph - N/A   Mostly Cloudy
2:09 AM 60.6 °F 48.6 °F 64% 29.97 in 10.0 mi North 5.8 mph - N/A   Overcast
2:29 AM 59.5 °F 47.5 °F 64% 29.96 in 10.0 mi North 6.9 mph - N/A   Scattered Clouds
2:49 AM 59.0 °F 47.5 °F 66% 29.97 in 10.0 mi North 5.8 mph - N/A   Mostly Cloudy
3:09 AM 58.1 °F 47.7 °F 68% 29.98 in 10.0 mi Calm Calm - N/A   Scattered Clouds
3:29 AM 57.2 °F 48.4 °F 72% 29.98 in 10.0 mi Calm Calm - N/A   Scattered Clouds
3:50 AM 57.4 °F 48.0 °F 71% 29.99 in 10.0 mi Calm Calm - N/A   Mostly Cloudy
4:10 AM 57.0 °F 46.9 °F 69% 30.00 in 10.0 mi Calm Calm - N/A   Scattered Clouds
4:30 AM 55.6 °F 47.3 °F 74% 30.00 in 10.0 mi Calm Calm - N/A   Clear
4:50 AM 54.9 °F 48.2 °F 78% 30.01 in 10.0 mi Calm Calm - N/A   Scattered Clouds
5:10 AM 54.5 °F 48.6 °F 80% 30.02 in 10.0 mi Calm Calm - N/A   Clear
5:30 AM 52.7 °F 49.6 °F 89% 30.03 in 10.0 mi Calm Calm - N/A   Clear
5:45 AM 53.6 °F 48.2 °F 82% 30.04 in 10.0 mi Calm Calm - N/A   Scattered Clouds
5:50 AM 52.9 °F 49.1 °F 87% 30.03 in 10.0 mi Calm Calm - N/A   Clear
6:10 AM 52.3 °F 48.7 °F 88% 30.05 in 10.0 mi Calm Calm - N/A   Clear
6:24 AM 51.6 °F 49.8 °F 94% 30.05 in 10.0 mi Calm Calm - N/A   Clear
6:50 AM 53.6 °F 50.0 °F 88% 30.05 in 10.0 mi Calm Calm - N/A   Scattered Clouds
7:45 AM 59.0 °F 48.2 °F 67% 30.07 in 10.0 mi NW 3.5 mph - N/A   Scattered Clouds
8:45 AM 60.8 °F 46.4 °F 59% 30.09 in 10.0 mi NW 9.2 mph - N/A   Scattered Clouds
9:50 AM 62.6 °F 46.4 °F 55% 30.11 in 10.0 mi NW 9.2 mph - N/A   Scattered Clouds
10:47 AM 64.4 °F 48.2 °F 56% 30.12 in 10.0 mi NW 9.2 mph - N/A   Scattered Clouds
11:45 AM 64.4 °F 46.4 °F 52% 30.12 in 10.0 mi NNW 8.1 mph - N/A   Scattered Clouds
1:45 PM 66.2 °F 46.4 °F 49% 30.12 in 10.0 mi West 5.8 mph - N/A   Scattered Clouds
2:50 PM 68.0 °F 46.4 °F 46% 30.12 in 10.0 mi West 9.2 mph 29.9 mph N/A   Scattered Clouds
3:45 PM 68.0 °F 44.6 °F 43% 30.11 in 10.0 mi NW 10.4 mph - N/A   Scattered Clouds
4:50 PM 68.0 °F 44.6 °F 43% 30.12 in 10.0 mi NNW 6.9 mph - N/A   Scattered Clouds
5:50 PM 68.0 °F 44.6 °F 43% 30.12 in 10.0 mi NNW 6.9 mph - N/A   Scattered Clouds
6:50 PM 64.4 °F 44.6 °F 49% 30.13 in 10.0 mi Calm Calm - N/A   Mostly Cloudy
7:50 PM 64.4 °F 48.2 °F 56% 30.15 in 10.0 mi Calm Calm - N/A   Scattered Clouds
8:50 PM 60.8 °F 48.2 °F 63% 30.16 in 10.0 mi Calm Calm - N/A   Clear
10:32 PM 57.2 °F 50.7 °F 79% 30.19 in 10.0 mi Calm Calm - N/A   Scattered Clouds
10:52 PM 56.8 °F 51.8 °F 83% 30.19 in 10.0 mi Calm Calm - N/A   Mostly Cloudy
11:12 PM 57.4 °F 51.8 °F 82% 30.19 in 10.0 mi Calm Calm - N/A   Scattered Clouds
11:32 PM 57.9 °F 53.1 °F 84% 30.18 in 10.0 mi Calm Calm - N/A   Scattered Clouds
11:52 PM 57.4 °F 53.1 °F 85% 30.19 in 10.0 mi Calm Calm - N/A   Scattered Clouds